Regional Weather Roundup
Issued by NWS

Home | Current Version | Previous Version | Graphics & Text | Print | Product List | Glossary Off
Versions: 1 2 3 4 5 6 7 8 9 10 11 12 13 14 15 16 17 18 19 20 21 22 23 24 25 26 27 28 29 30 31 32 33 34 35 36 37 38 39 40 41 42 43 44 45 46 47 48 49 50

000
ASUS45 KBOU 281907
RWRCO

WEATHER ROUNDUP FOR COLORADO
NATIONAL WEATHER SERVICE DENVER/BOULDER CO
100 PM MDT FRI AUG 28 2015

NOTE: "FAIR" INDICATES FEW OR NO CLOUDS BELOW 12000 FEET WITH NO
SIGNIFICANT WEATHER AND/OR OBSTRUCTIONS TO VISIBILITY.

COZ001>005-013-030-031-282000-
...NORTHWEST COLORADO...

CITY           SKY/WX    TMP DP  RH WIND       PRES   REMARKS
CRAIG          SUNNY     76  46  34 VRB6      30.35F
HAYDEN         NOT AVBL
MEEKER         SUNNY     76  46  34 SE8       30.35F
MOUNT WERNER   NOT AVBL
STEAMBOAT SPGS SUNNY     68  47  46 CALM      30.39F
WALDEN         SUNNY     66  41  39 SW5       30.45F
$$

COZ006>008-011-282000-
...WEST CENTRAL VALLEYS...

CITY           SKY/WX    TMP DP  RH WIND       PRES   REMARKS
GRAND JUNCTION SUNNY     78  51  38 S10       30.25F
MONTROSE       SUNNY     77  49  37 W7        30.33F
EAGLE          SUNNY     73  45  35 CALM      30.38F
RIFLE          SUNNY     77  51  40 N5        30.30F
DELTA          SUNNY     77  51  39 S3        30.29F
NUCLA          SUNNY     82  34  17 NE10      30.33F
$$

COZ017>023-064>068-282000-
...SOUTHWEST COLORADO...

CITY           SKY/WX    TMP DP  RH WIND       PRES   REMARKS
DURANGO        SUNNY     80  39  23 W7        30.29F
CORTEZ         SUNNY     84  36  18 NW10      30.25F
PAGOSA SPRINGS SUNNY     77  30  17 S3        30.36F
TELLURIDE      SUNNY     67  37  32 NE6       30.53S
WOLF CREEK PAS MOSUNNY   54  30  40 NE10G21   30.71S
$$

COZ009-010-012-014-032>034-037-058>063-282000-
...CENTRAL COLORADO...

CITY           SKY/WX    TMP DP  RH WIND       PRES   REMARKS
ASPEN          MOSUNNY   70  42  36 VRB3      30.43F
BUENA VISTA    SUNNY     75  28  18 N9G16     30.40F
COPPER MTN     PTSUNNY   54  37  54 W17       30.71F
BERTHOUD PASS  PTSUNNY   43  32  65 N8        30.75S
COTTONWOOD PAS PTSUNNY   70  28  21 CALM      30.55F
GUNNISON       SUNNY     72  39  30 E5        30.43F
KREMMLING      SUNNY     70  46  43 CALM      30.43F
LEADVILLE      MOSUNNY   63  30  28 NW15G23   30.55F
MONARCH PASS   CLOUDY    54  34  47 NE5       30.80F
SALIDA         SUNNY     77  32  19 N8        30.44F
SUNLIGHT       MOSUNNY   55  41  58 CALM      30.68F
WILKERSON PASS PTSUNNY   54  36  50 SE6       30.67F
$$

COZ069>075-282000-
...SAN LUIS VALLEY/SANGRE DE CRISTO MOUNTAINS...

CITY           SKY/WX    TMP DP  RH WIND       PRES   REMARKS
ALAMOSA        SUNNY     77  36  22 N9        30.36F
LA VETA PASS   MOSUNNY   66  41  39 NE10G20   30.56F
SAGUACHE       SUNNY     75  32  20 NE6       30.40F
$$

COZ035-036-038>040-282000-
...NORTHERN COLORADO FRONT RANGE...

CITY           SKY/WX    TMP DP  RH WIND       PRES   REMARKS
DENVER INTL AP MOSUNNY   83  41  22 NW13G23   30.24F
DMNS CITY PARK   N/A     83  41  23 NE9G17    30.24F
AURORA         MOSUNNY   81  44  26 N17       30.27F
FRONT RANGE AP MOSUNNY   81  39  22 N13       30.25F
ERIE MUNI ARPT MOSUNNY   82  42  24 NE6       30.23F
BOULDER MUN AP MOSUNNY   81  45  28 E8        30.24S
CENTENNIAL     MOSUNNY   79  43  27 VRB3      30.28F
BROOMFIELD     PTSUNNY   79  43  27 NE8       30.27F
FORT COLLINS   MOSUNNY   84  45  24 N14       30.21F
LONGMONT       PTSUNNY   83  48  29 CALM      30.24F
$$

COZ041-046-047-076>085-087-088-282000-
...PIKES PEAK/PALMER DIVIDE AND SOUTHERN FOOTHILLS...

CITY           SKY/WX    TMP DP  RH WIND       PRES   REMARKS
COLO. SPRINGS  MOSUNNY   80  43  26 N16G24    30.30F
A. F. ACADEMY  SUNNY     75  43  31 NE16G24   30.31F
ELLICOTT       SUNNY    N/A N/A N/A N14G21    30.29F
FALCON         MOSUNNY   74  44  34 MISG      30.36F
FORT CARSON    SUNNY     80  46  29 N16G23    30.26F
LIMON          MOSUNNY   80  48  32 N15G22    30.23F
MONUMENT HILL  MOSUNNY   72  41  33 N13G20    30.36F
TRINIDAD       SUNNY     82  50  32 MISG      30.24F
$$

COZ042>045-048>051-090-091-282000-
...NORTHEAST COLORADO...

CITY           SKY/WX    TMP DP  RH WIND       PRES   REMARKS
GREELEY ARPT   MOSUNNY   82  45  26 N10G17    30.20F
AKRON          MOSUNNY   82  52  35 NW13      30.16F
BURLINGTON     SUNNY     87  46  24 NW20G28   30.12F
WRAY           SUNNY     91  47  22 N18       30.08F
STERLING       SUNNY     86  48  26 N12       30.11F
HOLYOKE        SUNNY     88  46  23 N18G24    30.08F
FORT MORGAN    PTSUNNY   82  48  30 W9        30.17F
$$

COZ086-089-092>099-282000-
...SOUTHEAST COLORADO...

CITY           SKY/WX    TMP DP  RH WIND       PRES   REMARKS
PUEBLO         MOSUNNY   86  52  30 MISG      30.19F
LA JUNTA       MOSUNNY   89  53  29 N15G21    30.14F
LAMAR          SUNNY     87  54  32 NW6       30.09F
SPRINGFIELD      N/A     87  53  31 N15G21    30.14F
$$




USA.gov is the U.S. government's official web portal to all federal, state and local government web resources and services.